This is the latest recevied weather packets stored in our database for station/object IR9AK-10. If no packets are shown the sender has not sent any weather packets the latest 10 day(s).
| Time | Temp. | Humidity | Pressure | Rain* | Wind** | Luminosity | Snow |
|---|---|---|---|---|---|---|---|
| 1778069075 | 24.44° C | 42% | 1057.8 hPa | - | - | - | - |
| 1778068476 | 24.44° C | 41% | 1057.8 hPa | - | - | - | - |
| 1778067877 | 24.44° C | 40% | 1057.8 hPa | - | - | - | - |
| 1778067278 | 25° C | 41% | 1058 hPa | - | - | - | - |
| 1778066680 | 25° C | 39% | 1058.1 hPa | - | - | - | - |
| 1778066080 | 25° C | 40% | 1058.2 hPa | - | - | - | - |
| 1778065482 | 25.56° C | 38% | 1058.2 hPa | - | - | - | - |
| 1778064882 | 25° C | 39% | 1058.3 hPa | - | - | - | - |
| 1778064282 | 24.44° C | 42% | 1058.3 hPa | - | - | - | - |
| 1778063683 | 25° C | 42% | 1058.3 hPa | - | - | - | - |
| 1778063085 | 25° C | 42% | 1058.6 hPa | - | - | - | - |
| 1778062485 | 25.56° C | 42% | 1058.6 hPa | - | - | - | - |
| 1778061886 | 25.56° C | 43% | 1058.6 hPa | - | - | - | - |
| 1778061287 | 25° C | 43% | 1058.7 hPa | - | - | - | - |
| 1778060688 | 25° C | 45% | 1058.7 hPa | - | - | - | - |
| 1778060088 | 25.56° C | 46% | 1058.8 hPa | - | - | - | - |
| 1778059489 | 25.56° C | 45% | 1058.9 hPa | - | - | - | - |
| 1778058890 | 25° C | 45% | 1059 hPa | - | - | - | - |
| 1778058291 | 24.44° C | 46% | 1059 hPa | - | - | - | - |
| 1778057693 | 23.89° C | 47% | 1059.1 hPa | - | - | - | - |
| 1778057094 | 23.33° C | 48% | 1059.1 hPa | - | - | - | - |
| 1778056496 | 23.33° C | 49% | 1059.1 hPa | - | - | - | - |
| 1778055897 | 22.78° C | 52% | 1059.1 hPa | - | - | - | - |
| 1778055297 | 22.22° C | 50% | 1059 hPa | - | - | - | - |
| 1778054698 | 23.33° C | 49% | 1058.8 hPa | - | - | - | - |
* Rain since midnight (hover to see other rain measurements)
** Current wind speed in m/s (hover to see current wind gust speed)